When you browse on this site, cookies collect data to enhance your experience and personalize the content and advertising you see.
Visit our Privacy Policy to learn more. By continuing to use the site, you agree to this use of cookies and data.
  • In United Kingdom
  • List of Countries
  • For 7 days
  • Water Temperature
  • Satellite Maps
  • Weather Map
  • Weather Widgets
  • user-avatar
    Login

    Hourly Weather Dromore

    Today, 21 January, Monday

    Time Temperature Precipitation Wind Pressure Humidity
    00:00 +2°C° 0 mm 1 mps 759 mmHg 89%
    01:00 +2°C° 0 mm 1 mps 758 mmHg 89%
    02:00 +1°C° 0 mm 1 mps 758 mmHg 88%
    03:00 -1°C° 0 mm 2 mps 757 mmHg 88%
    04:00 +1°C° 0 mm 2 mps 757 mmHg 88%
    05:00 +1°C° 0 mm 2 mps 756 mmHg 87%
    06:00 0°C° 0 mm 3 mps 756 mmHg 87%
    07:00 0°C° 0 mm 3 mps 755 mmHg 87%
    08:00 0°C° 0 mm 3 mps 754 mmHg 86%
    09:00 -1°C° 0 mm 4 mps 754 mmHg 86%
    10:00 0°C° 0 mm 5 mps 753 mmHg 82%
    11:00 +1°C° 0 mm 6 mps 751 mmHg 79%
    12:00 +2°C° 0 mm 7 mps 750 mmHg 75%
    13:00 +2°C° 0.5 mm 7 mps 749 mmHg 79%
    14:00 +1°C° 0.5 mm 8 mps 747 mmHg 82%
    15:00 +1°C° 0.5 mm 8 mps 745 mmHg 86%
    16:00 +2°C° 1.1 mm 8 mps 744 mmHg 87%
    17:00 +2°C° 1.1 mm 8 mps 743 mmHg 89%
    18:00 +2°C° 1.1 mm 8 mps 742 mmHg 91%
    19:00 +2°C° 0.2 mm 7 mps 742 mmHg 88%
    20:00 +1°C° 0.2 mm 6 mps 742 mmHg 85%
    21:00 -2°C° 0.2 mm 6 mps 742 mmHg 82%
    22:00 -1°C° 0 mm 5 mps 742 mmHg 83%
    23:00 -1°C° 0 mm 5 mps 742 mmHg 83%

    Tomorrow, 22 January, Tuesday

    Time Temperature Precipitation Wind Pressure Humidity
    00:00 -1°C° 0 mm 5 mps 742 mmHg 84%
    01:00 -1°C° 0 mm 5 mps 742 mmHg 84%
    02:00 -1°C° 0 mm 5 mps 741 mmHg 84%
    03:00 -1°C° 0 mm 4 mps 741 mmHg 84%
    04:00 -1°C° 0.1 mm 4 mps 741 mmHg 85%
    05:00 -1°C° 0.1 mm 5 mps 740 mmHg 87%
    06:00 -1°C° 0.1 mm 5 mps 740 mmHg 88%
    07:00 -1°C° 0.1 mm 5 mps 740 mmHg 86%
    08:00 -1°C° 0.1 mm 5 mps 740 mmHg 84%
    09:00 -1°C° 0.1 mm 5 mps 739 mmHg 81%
    10:00 0°C° 0 mm 5 mps 739 mmHg 78%
    11:00 -1°C° 0 mm 6 mps 739 mmHg 74%
    12:00 +1°C° 0 mm 6 mps 739 mmHg 71%
    13:00 -1°C° 0 mm 6 mps 739 mmHg 70%
    14:00 0°C° 0 mm 5 mps 739 mmHg 70%
    15:00 0°C° 0 mm 5 mps 739 mmHg 69%
    16:00 0°C° 0 mm 4 mps 739 mmHg 72%
    17:00 -1°C° 0 mm 4 mps 740 mmHg 75%
    18:00 -2°C° 0 mm 4 mps 740 mmHg 78%
    19:00 -2°C° 0 mm 4 mps 740 mmHg 79%
    20:00 -2°C° 0 mm 3 mps 740 mmHg 81%
    21:00 -2°C° 0 mm 3 mps 740 mmHg 82%
    22:00 -2°C° 0 mm 3 mps 741 mmHg 83%
    23:00 -2°C° 0 mm 3 mps 741 mmHg 83%

    Day after tomorrow, 23 January, Wednesday

    Time Temperature Precipitation Wind Pressure Humidity
    00:00 -2°C° 0 mm 3 mps 742 mmHg 84%
    01:00 -1°C° 0 mm 3 mps 742 mmHg 84%
    02:00 -1°C° 0 mm 3 mps 743 mmHg 84%
    03:00 -1°C° 0 mm 3 mps 743 mmHg 84%
    04:00 -1°C° 0 mm 3 mps 743 mmHg 85%
    05:00 -1°C° 0 mm 3 mps 743 mmHg 86%
    06:00 -1°C° 0 mm 2 mps 743 mmHg 86%
    07:00 -1°C° 0 mm 2 mps 744 mmHg 87%
    08:00 -1°C° 0 mm 2 mps 745 mmHg 89%
    09:00 -1°C° 0 mm 2 mps 745 mmHg 90%
    10:00 +1°C° 0 mm 2 mps 746 mmHg 85%
    11:00 +2°C° 0 mm 2 mps 746 mmHg 80%
    12:00 +4°C° 0 mm 2 mps 746 mmHg 74%
    13:00 +4°C° 0 mm 2 mps 746 mmHg 76%
    14:00 +4°C° 0 mm 2 mps 747 mmHg 78%
    15:00 +4°C° 0 mm 2 mps 747 mmHg 80%
    16:00 +4°C° 0 mm 2 mps 747 mmHg 84%
    17:00 +3°C° 0 mm 2 mps 747 mmHg 88%
    18:00 +2°C° 0 mm 2 mps 747 mmHg 93%
    19:00 +3°C° 0.2 mm 2 mps 747 mmHg 93%
    20:00 +3°C° 0.2 mm 2 mps 747 mmHg 94%
    21:00 +2°C° 0.2 mm 3 mps 748 mmHg 95%
    22:00 +3°C° 0.3 mm 3 mps 747 mmHg 95%
    23:00 +3°C° 0.3 mm 4 mps 747 mmHg 95%

    24 January, Thursday

    Time Temperature Precipitation Wind Pressure Humidity
    00:00 +2°C° 0.3 mm 5 mps 747 mmHg 95%
    01:00 +4°C° 0.4 mm 4 mps 746 mmHg 95%
    02:00 +4°C° 0.4 mm 4 mps 746 mmHg 96%
    03:00 +4°C° 0.4 mm 4 mps 746 mmHg 96%
    04:00 +5°C° 0 mm 4 mps 746 mmHg 96%
    05:00 +6°C° 0 mm 4 mps 746 mmHg 96%
    06:00 +6°C° 0 mm 4 mps 746 mmHg 96%
    07:00 +7°C° 0.1 mm 4 mps 747 mmHg 96%
    08:00 +7°C° 0.1 mm 4 mps 747 mmHg 96%
    09:00 +7°C° 0.1 mm 4 mps 747 mmHg 95%
    10:00 +7°C° 0.1 mm 4 mps 747 mmHg 95%
    11:00 +8°C° 0.1 mm 5 mps 748 mmHg 94%
    12:00 +8°C° 0.1 mm 5 mps 748 mmHg 94%
    13:00 +8°C° 0.1 mm 6 mps 748 mmHg 93%
    14:00 +8°C° 0.1 mm 6 mps 749 mmHg 93%
    15:00 +9°C° 0.1 mm 6 mps 749 mmHg 93%
    16:00 +8°C° 0 mm 6 mps 749 mmHg 93%
    17:00 +8°C° 0 mm 6 mps 749 mmHg 93%
    18:00 +8°C° 0 mm 6 mps 750 mmHg 93%
    19:00 +8°C° 0 mm 5 mps 750 mmHg 94%
    20:00 +8°C° 0 mm 5 mps 750 mmHg 94%
    21:00 +8°C° 0 mm 5 mps 750 mmHg 94%
    22:00 +8°C° 0 mm 5 mps 750 mmHg 94%
    23:00 +7°C° 0 mm 5 mps 750 mmHg 95%

    25 January, Friday

    Time Temperature Precipitation Wind Pressure Humidity
    00:00 +7°C° 0 mm 5 mps 750 mmHg 95%
    01:00 +7°C° 0 mm 5 mps 750 mmHg 94%
    02:00 +7°C° 0 mm 5 mps 750 mmHg 94%
    03:00 +6°C° 0 mm 5 mps 749 mmHg 94%
    04:00 +6°C° 0 mm 5 mps 749 mmHg 93%
    05:00 +6°C° 0 mm 5 mps 749 mmHg 93%
    06:00 +6°C° 0 mm 5 mps 748 mmHg 93%
    07:00 +6°C° 0 mm 5 mps 748 mmHg 92%
    08:00 +5°C° 0 mm 5 mps 748 mmHg 91%
    09:00 +4°C° 0 mm 6 mps 747 mmHg 90%
    10:00 +5°C° 0 mm 6 mps 747 mmHg 89%
    11:00 +6°C° 0 mm 7 mps 746 mmHg 88%
    12:00 +8°C° 0 mm 7 mps 746 mmHg 87%
    13:00 +9°C° 0.1 mm 7 mps 745 mmHg 88%
    14:00 +9°C° 0.1 mm 7 mps 744 mmHg 89%
    15:00 +9°C° 0.1 mm 7 mps 743 mmHg 90%
    16:00 +9°C° 0.2 mm 7 mps 743 mmHg 90%
    17:00 +9°C° 0.2 mm 7 mps 742 mmHg 91%
    18:00 +9°C° 0.2 mm 7 mps 742 mmHg 91%
    19:00 +8°C° 1.3 mm 6 mps 741 mmHg 93%
    20:00 +8°C° 1.3 mm 5 mps 741 mmHg 94%
    21:00 +7°C° 1.3 mm 4 mps 741 mmHg 95%
    22:00 +6°C° 1.4 mm 4 mps 740 mmHg 93%
    23:00 +5°C° 1.4 mm 5 mps 740 mmHg 92%

    26 January, Saturday

    Time Temperature Precipitation Wind Pressure Humidity
    00:00 +3°C° 1.4 mm 5 mps 740 mmHg 90%
    01:00 +3°C° 0.2 mm 5 mps 741 mmHg 87%
    02:00 +2°C° 0.2 mm 5 mps 741 mmHg 85%
    03:00 +2°C° 0.2 mm 6 mps 742 mmHg 83%
    04:00 +2°C° 0 mm 5 mps 743 mmHg 83%
    05:00 +1°C° 0 mm 5 mps 743 mmHg 83%
    06:00 +1°C° 0 mm 5 mps 744 mmHg 83%
    07:00 +1°C° 0 mm 5 mps 744 mmHg 83%
    08:00 +1°C° 0 mm 5 mps 744 mmHg 83%
    09:00 +1°C° 0 mm 5 mps 745 mmHg 83%
    10:00 +1°C° 0 mm 6 mps 745 mmHg 80%
    11:00 +2°C° 0 mm 6 mps 745 mmHg 76%
    12:00 +3°C° 0 mm 6 mps 746 mmHg 72%
    13:00 +3°C° 0 mm 6 mps 746 mmHg 72%
    14:00 +3°C° 0 mm 6 mps 746 mmHg 71%
    15:00 +3°C° 0 mm 6 mps 746 mmHg 70%
    16:00 +2°C° 0 mm 6 mps 746 mmHg 72%
    17:00 +1°C° 0 mm 5 mps 746 mmHg 75%
    18:00 0°C° 0 mm 5 mps 746 mmHg 78%
    19:00 0°C° 0 mm 4 mps 746 mmHg 79%
    20:00 0°C° 0 mm 4 mps 746 mmHg 80%
    21:00 -1°C° 0 mm 4 mps 746 mmHg 81%
    22:00 -1°C° 0 mm 4 mps 746 mmHg 83%
    23:00 -1°C° 0 mm 4 mps 745 mmHg 86%
    Show more